Retour au catalogue

STARLINK-5306

ActifCommunicationsVLEO
NORAD 55271·PAYLOAD·🇺🇸 United States

Lancé Jan 19, 2023 depuis Vandenberg Space Force Base

Loading…

Prochains Passages (prochaines 24 heures)

TLE

FraisSource: CelesTrak SupGP

Époque: Sep 15, 2026, 02:13 UTC

1 55271C 23010C   26258.09284722  .00697270  00000+0  57698-1 0  2587
2 55271  69.9995 287.0096 0003305 262.5115 111.1691 14.98469295    12

Suivez STARLINK-5306 en temps réel avec AllMySat

Download on the App Store